| time (UTC) | temp C | wind direction | speed KPH | gust KPH | rain 1hr cm | rain 24hr cm | rain mn cm | humidity % | barometer mb |
| 20260506014537 | 3 | 0 | 0.0 | 1.6 | 0.00 | 0.00 | 0.00 | 80 | 1007.7 |
| 20260506013043 | 3 | 82 | 0.0 | 3.2 | 0.00 | 0.00 | 0.00 | 78 | 1007.7 |
| 20260506011540 | 3 | 59 | 3.2 | 4.8 | 0.00 | 0.00 | 0.00 | 80 | 1007.4 |
| 20260506010040 | 3 | 101 | 3.2 | 4.8 | 0.00 | 0.00 | 0.00 | 80 | 1007.2 |
| 20260506004542 | 3 | 49 | 3.2 | 8.0 | 0.00 | 0.00 | 0.00 | 78 | 1007.2 |
| 20260506003038 | 4 | 78 | 6.4 | 11.3 | 0.00 | 0.00 | 0.00 | 78 | 1007.0 |
| 20260506001549 | 4 | 80 | 6.4 | 14.5 | 0.00 | 0.00 | 0.00 | 76 | 1007.0 |
| 20260506000057 | 4 | 53 | 9.7 | 16.1 | 0.00 | 0.00 | 0.00 | 77 | 1006.9 |
| 20260505234544 | 5 | 51 | 8.0 | 16.1 | 0.00 | 0.00 | 0.00 | 75 | 1006.9 |
| 20260505233048 | 5 | 43 | 9.7 | 17.7 | 0.00 | 0.00 | 0.00 | 75 | 1006.8 |
| 20260505231546 | 5 | 40 | 12.9 | 19.3 | 0.00 | 0.00 | 0.00 | 75 | 1006.6 |
| 20260505230045 | 5 | 59 | 16.1 | 20.9 | 0.00 | 0.00 | 0.00 | 74 | 1006.7 |
| 20260505224548 | 6 | 53 | 14.5 | 20.9 | 0.00 | 0.00 | 0.00 | 74 | 1006.8 |
| 20260505223044 | 7 | 38 | 8.0 | 12.9 | 0.00 | 0.00 | 0.00 | 70 | 1006.9 |
| 20260505221547 | 7 | 254 | 4.8 | 12.9 | 0.00 | 0.00 | 0.00 | 65 | 1006.8 |
| 20260505220049 | 7 | 308 | 6.4 | 16.1 | 0.00 | 0.00 | 0.00 | 65 | 1006.5 |
| 20260505214545 | 7 | 286 | 11.3 | 17.7 | 0.00 | 0.00 | 0.00 | 65 | 1006.6 |
| 20260505213044 | 7 | 293 | 8.0 | 16.1 | 0.00 | 0.00 | 0.00 | 64 | 1006.5 |
| 20260505211607 | 7 | 279 | 12.9 | 20.9 | 0.00 | 0.00 | 0.00 | 63 | 1006.6 |
| 20260505210046 | 7 | 294 | 9.7 | 19.3 | 0.00 | 0.00 | 0.00 | 66 | 1006.5 |
| 20260505204556 | 7 | 277 | 12.9 | 20.9 | 0.00 | 0.00 | 0.00 | 64 | 1006.6 |
| 20260505203039 | 7 | 274 | 6.4 | 12.9 | 0.00 | 0.00 | 0.00 | 65 | 1006.4 |
| 20260505201540 | 7 | 312 | 6.4 | 16.1 | 0.00 | 0.00 | 0.00 | 63 | 1006.5 |
| 20260505200039 | 7 | 294 | 9.7 | 16.1 | 0.00 | 0.00 | 0.00 | 62 | 1006.2 |
| 20260505194537 | 7 | 300 | 8.0 | 14.5 | 0.00 | 0.00 | 0.00 | 61 | 1005.9 |
| 20260505193044 | 7 | 293 | 4.8 | 20.9 | 0.00 | 0.00 | 0.00 | 63 | 1005.8 |
| 20260505191543 | 7 | 271 | 6.4 | 22.5 | 0.00 | 0.00 | 0.00 | 64 | 1005.8 |
| 20260505190040 | 7 | 278 | 9.7 | 24.1 | 0.00 | 0.00 | 0.00 | 65 | 1005.5 |
| 20260505184542 | 7 | 325 | 12.9 | 20.9 | 0.00 | 0.00 | 0.00 | 68 | 1005.6 |
| 20260505183044 | 7 | 317 | 9.7 | 24.1 | 0.00 | 0.00 | 0.00 | 64 | 1005.4 |
| 20260505181604 | 7 | 282 | 6.4 | 20.9 | 0.00 | 0.00 | 0.00 | 66 | 1005.3 |
| 20260505180052 | 7 | 315 | 11.3 | 22.5 | 0.00 | 0.00 | 0.00 | 66 | 1004.9 |
| 20260505174544 | 7 | 320 | 12.9 | 24.1 | 0.00 | 0.00 | 0.00 | 66 | 1005.0 |
| 20260505173038 | 7 | 298 | 17.7 | 22.5 | 0.00 | 0.00 | 0.00 | 70 | 1004.7 |
| 20260505171541 | 7 | 307 | 11.3 | 22.5 | 0.00 | 0.00 | 0.00 | 69 | 1004.7 |
| 20260505170037 | 7 | 270 | 8.0 | 20.9 | 0.00 | 0.00 | 0.00 | 69 | 1004.7 |
| 20260505164537 | 7 | 329 | 11.3 | 25.7 | 0.00 | 0.00 | 0.00 | 70 | 1004.5 |
| 20260505163040 | 7 | 302 | 8.0 | 22.5 | 0.00 | 0.00 | 0.00 | 71 | 1004.1 |
| 20260505161538 | 7 | 350 | 8.0 | 20.9 | 0.00 | 0.00 | 0.00 | 73 | 1004.3 |
| 20260505153043 | 8 | 326 | 16.1 | 22.5 | 0.00 | 0.00 | 0.00 | 73 | 1003.5 |
| 20260505151541 | 8 | 321 | 12.9 | 22.5 | 0.00 | 0.00 | 0.00 | 71 | 1003.1 |
| 20260505124536 | 7 | 314 | 16.1 | 25.7 | 0.00 | 0.00 | 0.00 | 88 | 1001.4 |
| 20260505123051 | 7 | 10 | 16.1 | 24.1 | 0.00 | 0.00 | 0.00 | 89 | 1000.8 |
| 20260505121540 | 8 | 319 | 8.0 | 14.5 | 0.00 | 0.00 | 0.00 | 91 | 1000.3 |
| 20260505120059 | 8 | 289 | 11.3 | 16.1 | 0.00 | 0.00 | 0.00 | 91 | 1000.4 |
| 20260505114538 | 8 | 304 | 11.3 | 17.7 | 0.00 | 0.00 | 0.00 | 91 | 1000.4 |
| 20260505113048 | 8 | 258 | 14.5 | 19.3 | 0.00 | 0.00 | 0.00 | 92 | 999.8 |
| 20260505111543 | 10 | 331 | 11.3 | 24.1 | 0.00 | 0.00 | 0.00 | 91 | 999.3 |
| 20260505110105 | 10 | 319 | 16.1 | 27.4 | 0.00 | 0.00 | 0.00 | 90 | 998.8 |
| 20260505101537 | 11 | 290 | 4.8 | 17.7 | 0.00 | 0.00 | 0.00 | 88 | 998.1 |
| 20260505100038 | 12 | 277 | 12.9 | 17.7 | 0.00 | 0.00 | 0.00 | 87 | 997.9 |
| 20260505094537 | 12 | 277 | 6.4 | 16.1 | 0.00 | 0.00 | 0.00 | 87 | 997.5 |
| 20260505093043 | 12 | 292 | 6.4 | 16.1 | 0.00 | 0.00 | 0.00 | 87 | 997.3 |
| 20260505091551 | 12 | 238 | 6.4 | 17.7 | 0.00 | 0.00 | 0.00 | 86 | 997.3 |
| 20260505090039 | 12 | 240 | 8.0 | 17.7 | 0.00 | 0.00 | 0.00 | 86 | 997.1 |
| 20260505084539 | 12 | 245 | 6.4 | 22.5 | 0.00 | 0.00 | 0.00 | 85 | 997.1 |
| 20260505083049 | 12 | 219 | 6.4 | 16.1 | 0.00 | 0.00 | 0.00 | 85 | 997.1 |
| 20260505081537 | 13 | 220 | 8.0 | 17.7 | 0.00 | 0.00 | 0.00 | 84 | 997.3 |
| 20260505080038 | 13 | 262 | 9.7 | 20.9 | 0.00 | 0.00 | 0.00 | 83 | 997.5 |
| 20260505074539 | 13 | 252 | 9.7 | 19.3 | 0.00 | 0.00 | 0.00 | 82 | 997.8 |
| 20260505073037 | 13 | 278 | 11.3 | 19.3 | 0.00 | 0.00 | 0.00 | 82 | 998.0 |
| 20260505071538 | 13 | 282 | 11.3 | 19.3 | 0.00 | 0.00 | 0.00 | 79 | 998.0 |
| 20260505070037 | 14 | 280 | 16.1 | 37.0 | 0.00 | 0.00 | 0.00 | 76 | 998.4 |
| 20260505064554 | 15 | 283 | 25.7 | 35.4 | 0.00 | 0.03 | 0.00 | 79 | 998.8 |
| 20260505063041 | 14 | 315 | 17.7 | 33.8 | 0.00 | 0.03 | 0.00 | 79 | 998.6 |
| 20260505061539 | 14 | 292 | 19.3 | 35.4 | 0.00 | 0.03 | 0.00 | 80 | 998.1 |
| 20260505060039 | 14 | 303 | 19.3 | 33.8 | 0.00 | 0.03 | 0.00 | 80 | 998.1 |
| 20260505054547 | 14 | 246 | 19.3 | 32.2 | 0.00 | 0.03 | 0.00 | 80 | 998.2 |
| 20260505053037 | 13 | 294 | 14.5 | 30.6 | 0.00 | 0.03 | 0.00 | 81 | 998.2 |
| 20260505051537 | 13 | 230 | 12.9 | 27.4 | 0.00 | 0.03 | 0.00 | 81 | 998.4 |
| 20260505041539 | 13 | 242 | 14.5 | 30.6 | 0.00 | 0.03 | 0.00 | 79 | 998.2 |
| 20260505040047 | 13 | 238 | 16.1 | 27.4 | 0.00 | 0.03 | 0.00 | 79 | 998.2 |
| 20260505034601 | 13 | 223 | 14.5 | 24.1 | 0.00 | 0.03 | 0.03 | 78 | 998.5 |
| 20260505033042 | 14 | 263 | 14.5 | 29.0 | 0.00 | 0.03 | 0.03 | 77 | 998.8 |
| 20260505031538 | 14 | 202 | 12.9 | 22.5 | 0.00 | 0.03 | 0.03 | 76 | 998.7 |
| 20260505030048 | 14 | 229 | 14.5 | 32.2 | 0.00 | 0.03 | 0.03 | 74 | 998.8 |
| 20260505024542 | 14 | 218 | 14.5 | 27.4 | 0.00 | 0.03 | 0.03 | 74 | 998.9 |
| 20260505023043 | 15 | 202 | 16.1 | 33.8 | 0.00 | 0.03 | 0.03 | 72 | 998.9 |
| 20260505021540 | 15 | 237 | 17.7 | 33.8 | 0.00 | 0.03 | 0.03 | 71 | 998.9 |
| 20260505020052 | 15 | 219 | 17.7 | 29.0 | 0.00 | 0.03 | 0.03 | 69 | 999.1 |